KD7DVD-1 Weather Reports


Display with metric or nautical units.
time (UTC)temp
F
wind
direction
speed
MPH
gust
MPH
rain 1hr
in
rain 24hr
in
rain mn
in
humidity
%
barometer
mb
20260508033016 59 0.0 0.0 0.00 0.00 0.00 69 1016.2
20260508030016 61 0.0 0.0 0.00 0.00 0.00 63 1016.3
20260508023016 62 0.0 2.0 0.00 0.00 0.00 60 1016.4
20260508020016 65 0.0 1.0 0.00 0.00 0.00 58 1016.6
20260508013017 65 0.0 2.0 0.00 0.00 0.00 56 1016.7
20260508010016 68 0.0 2.0 0.00 0.00 0.00 52 1017.1
20260508003016 67 0.0 3.0 0.00 0.00 0.00 51 1017.3
20260508000020 66 0.0 2.0 0.00 0.00 0.00 53 1017.3
20260507233015 66 0.0 3.0 0.00 0.00 0.00 56 1017.5
20260507230015 65 0.0 3.0 0.00 0.00 0.00 57 1017.7
20260507223015 63 0.0 2.0 0.00 0.00 0.00 62 1017.9
20260507220017 64 0.0 3.0 0.00 0.00 0.00 58 1018.1
20260507213017 60 0.0 2.0 0.00 0.00 0.00 64 1018.6
20260507210017 61 0.0 3.0 0.00 0.00 0.00 64 1019.0
20260507203017 61 0.0 3.0 0.00 0.00 0.00 64 1019.4
20260507200017 61 0.0 3.0 0.00 0.00 0.00 62 1019.5
20260507193017 60 0.0 2.0 0.00 0.00 0.00 66 1019.6
20260507190017 60 0.0 1.0 0.00 0.00 0.00 68 1019.8
20260507183017 58 0.0 2.0 0.00 0.00 0.00 69 1020.1
20260507180017 59 0.0 3.0 0.00 0.00 0.00 67 1020.1
20260507173017 56 0.0 1.0 0.00 0.00 0.00 76 1020.3
20260507170016 55 0.0 2.0 0.00 0.00 0.00 76 1020.2
20260507163016 54 0.0 3.0 0.00 0.00 0.00 78 1020.2
20260507160016 54 0.0 1.0 0.00 0.00 0.00 79 1020.4
20260507153016 53 0.0 3.0 0.00 0.00 0.00 79 1020.5
20260507150016 55 0.0 2.0 0.00 0.00 0.00 79 1020.4
20260507143016 54 0.0 1.0 0.00 0.00 0.00 79 1020.4
20260507140016 51 0.0 1.0 0.00 0.00 0.00 85 1020.3
20260507133016 51 0.0 0.0 0.00 0.00 0.00 87 1020.2
20260507130016 50 0.0 1.0 0.00 0.00 0.00 87 1020.2
20260507123016 51 0.0 0.0 0.00 0.00 0.00 87 1020.3
20260507120016 51 0.0 0.0 0.00 0.00 0.00 88 1020.4
20260507113016 51 0.0 0.0 0.00 0.00 0.00 89 1020.6
20260507110015 51 0.0 0.0 0.00 0.00 0.00 89 1020.8
20260507103015 50 0.0 0.0 0.00 0.00 0.00 90 1021.0
20260507100015 50 0.0 0.0 0.00 0.00 0.00 91 1021.0
20260507093015 49 0.0 0.0 0.00 0.00 0.00 91 1020.8
20260507090015 50 0.0 0.0 0.00 0.00 0.00 89 1020.8
20260507083015 51 0.0 1.0 0.00 0.00 0.00 88 1020.8
20260507080017 52 0.0 0.0 0.00 0.00 0.00 87 1020.7
20260507073017 53 0.0 1.0 0.00 0.00 0.00 87 1020.6
20260507070017 53 0.0 1.0 0.00 0.00 0.00 87 1020.6
20260507063016 54 0.0 1.0 0.00 0.00 0.00 87 1020.6
20260507060016 54 0.0 2.0 0.00 0.00 0.00 86 1020.7
20260507053016 54 0.0 1.0 0.00 0.00 0.00 85 1020.7
20260507050016 55 0.0 1.0 0.00 0.00 0.00 85 1020.6
20260507043016 55 0.0 1.0 0.00 0.00 0.00 84 1020.4
20260507040016 55 0.0 1.0 0.00 0.00 0.00 84 1020.3